This demonstration page uses our WeatherBlox Daily Observations layout. Learn more.

Hourly Observations for March 9, 2015

Temp ( °F °C ) Dew Point ( °F °C ) Humidity (%) Winds ( mph kmh ) Pressure ( in mb ) Visibility ( mi km ) Precip ( " mm )
12:15 am 00:15 Clear 34 1 24 -4.4 68 68 S 5 7 30.21 1023 10 16.0934 0 0
12:35 am 00:35 Clear 31 -0.7 21 -6.1 67 67 SSE 5 7 30.24 1024 10 16.0934 0 0
12:55 am 00:55 Clear 34 1 25 -4.1 69 69 S 5 7 30.21 1023 10 16.0934 0 0
1:15 am 01:15 Clear 34 1.1 25 -4 69 69 S 5 7 30.21 1023 10 16.0934 0 0
1:35 am 01:35 Clear 32 0 22 -5.3 68 68 SSE 5 7 30.24 1024 10 16.0934 0 0
1:55 am 01:55 Clear 31 -0.5 23 -5.2 71 71 S 3 6 30.24 1024 10 16.0934 0 0
2:15 am 02:15 Clear 33 0.4 25 -4 73 73 S 3 6 30.24 1024 10 16.0934 0 0
2:35 am 02:35 Clear 32 0.1 25 -3.9 75 75 SSW 5 7 30.24 1024 10 16.0934 0 0
2:55 am 02:55 Clear 33 0.5 26 -3.5 75 75 SW 6 9 30.21 1023 10 16.0934 0 0
3:15 am 03:15 Clear 31 -0.8 24 -4.7 75 75 SW 5 7 30.24 1024 10 16.0934 0 0
3:35 am 03:35 Clear 30 -1 24 -4.3 79 79 SW 5 7 30.24 1024 10 16.0934 0 0
3:55 am 03:55 Clear 33 0.5 26 -3.6 74 74 SW 5 7 30.21 1023 10 16.0934 0 0
4:15 am 04:15 Clear 33 0.5 26 -3.6 74 74 SW 5 7 30.21 1023 10 16.0934 0 0
4:35 am 04:35 Clear 33 0.5 26 -3.5 75 75 SW 5 7 30.18 1022 10 16.0934 0 0
4:55 am 04:55 Clear 30 -1.1 24 -4.6 77 77 SW 5 7 30.21 1023 10 16.0934 0 0
5:15 am 05:15 Clear 30 -0.9 25 -3.8 81 81 SW 3 6 30.21 1023 10 16.0934 0 0
5:35 am 05:35 Clear 33 0.4 26 -3.3 77 77 SW 6 9 30.21 1023 10 16.0934 0 0
5:55 am 05:55 Clear 32 0.2 26 -3.2 78 78 SW 5 7 30.21 1023 10 16.0934 0 0
6:15 am 06:15 Clear 32 0.1 26 -3.1 79 79 SSW 5 7 30.21 1023 10 16.0934 0 0
6:35 am 06:35 Clear 31 -0.5 26 -3.5 80 80 SSW 6 9 30.21 1023 10 16.0934 0 0
6:55 am 06:55 Clear 30 -1.1 25 -3.8 82 82 SSW 6 9 30.21 1023 10 16.0934 0 0
7:15 am 07:15 Clear 30 -1.3 26 -3.6 85 85 SSW 6 9 30.21 1023 10 16.0934 0 0
7:35 am 07:35 Clear 31 -0.8 26 -3.2 84 84 SW 7 11 30.21 1023 10 16.0934 0 0
7:55 am 07:55 Clear 30 -1.2 26 -3.4 85 85 SW 5 7 30.21 1023 10 16.0934 0 0
8:15 am 08:15 Sunny 29 -1.8 25 -3.9 86 86 WSW 3 6 30.21 1023 10 16.0934 0 0
8:35 am 08:35 Sunny 30 -1.2 25 -3.7 83 83 SW 6 9 30.21 1023 10 16.0934 0 0
8:55 am 08:55 Sunny 32 -0.1 27 -2.9 82 82 SW 7 11 30.21 1023 10 16.0934 0 0
9:15 am 09:15 Sunny 34 1 28 -2.2 79 79 SW 6 9 30.18 1022 10 16.0934 0 0
9:35 am 09:35 Sunny 37 3 30 -1 75 75 SW 6 9 30.18 1022 10 16.0934 0 0
9:55 am 09:55 Sunny 41 5 32 -0.2 69 69 SW 9 15 30.15 1021 10 16.0934 0 0
10:15 am 10:15 Sunny 44 6.4 31 -0.3 63 63 SW 9 15 30.15 1021 10 16.0934 0 0
10:35 am 10:35 Sunny 45 7.2 31 -0.5 58 58 SSW 13 20 30.12 1020 10 16.0934 0 0
10:55 am 10:55 Sunny 46 7.8 31 -0.6 56 56 SSW 9 15 30.12 1020 10 16.0934 0 0
11:15 am 11:15 Sunny 47 8.6 30 -0.9 52 52 SSW 10 17 30.12 1020 10 16.0934 0 0
11:35 am 11:35 Sunny 49 9.4 29 -1.6 46 46 SSW 9 15 30.12 1020 10 16.0934 0 0
11:55 am 11:55 Sunny 50 9.9 28 -2.4 42 42 S 12 19 30.12 1020 10 16.0934 0 0
12:15 pm 12:15 Sunny 51 10.5 26 -3.3 38 38 S 12 19 30.09 1019 10 16.0934 0 0
12:35 pm 12:35 Sunny 51 10.8 25 -3.7 36 36 S 9 15 30.06 1018 10 16.0934 0 0
12:55 pm 12:55 Sunny 53 11.5 25 -4.1 34 34 S 10 17 30.06 1018 10 16.0934 0 0
1:15 pm 13:15 Sunny 54 12 24 -4.5 32 32 S 10 17 30.06 1018 10 16.0934 0 0
1:35 pm 13:35 Sunny 55 12.8 24 -4.2 31 31 S 9 15 30.06 1018 10 16.0934 0 0
1:55 pm 13:55 Sunny 57 13.7 23 -5.1 27 27 SSW 12 19 30 1016 10 16.0934 0 0
2:15 pm 14:15 Sunny 57 14.1 22 -5.6 25 25 S 14 22 30 1016 10 16.0934 0 0
2:35 pm 14:35 Sunny 59 14.9 19 -7.2 21 21 SSW 12 19 29.97 1015 10 16.0934 0 0
2:55 pm 14:55 Sunny 60 15.7 20 -6.7 21 21 S 12 19 29.94 1014 10 16.0934 0 0
3:15 pm 15:15 Sunny 61 16.2 20 -6.5 21 21 S 15 24 29.91 1013 10 16.0934 0 0
3:35 pm 15:35 Sunny 61 16.3 20 -6.6 20 20 SW 12 19 29.91 1013 10 16.0934 0 0
3:55 pm 15:55 Sunny 61 16.3 19 -7.1 20 20 S 9 15 29.91 1013 10 16.0934 0 0
4:15 pm 16:15 Sunny 62 16.6 19 -7 19 19 SSW 12 19 29.91 1013 10 16.0934 0 0
4:35 pm 16:35 Sunny 63 17.1 20 -6.8 19 19 SSW 12 19 29.88 1012 10 16.0934 0 0
4:55 pm 16:55 Sunny 62 16.9 20 -6.8 19 19 SW 12 19 29.88 1012 10 16.0934 0 0
5:15 pm 17:15 Sunny 62 16.7 19 -7 19 19 SSW 12 19 29.88 1012 10 16.0934 0 0
5:35 pm 17:35 Sunny 62 16.6 20 -6.7 20 20 SSW 13 20 29.88 1012 10 16.0934 0 0
5:55 pm 17:55 Sunny 62 16.7 21 -6 21 21 SSW 12 19 29.88 1012 10 16.0934 0 0
6:15 pm 18:15 Sunny 62 16.5 21 -5.9 21 21 S 13 20 29.88 1012 10 16.0934 0 0
6:35 pm 18:35 Sunny 61 16.1 22 -5.6 22 22 S 9 15 29.88 1012 10 16.0934 0 0
6:55 pm 18:55 Sunny 60 15.3 22 -5.6 23 23 S 6 9 29.91 1013 10 16.0934 0 0
7:15 pm 19:15 Sunny 57 13.8 22 -5.6 26 26 SSE 8 13 29.88 1012 10 16.0934 0 0
7:35 pm 19:35 Sunny 53 11.6 21 -6.1 29 29 SSE 9 15 29.91 1013 10 16.0934 0 0
8:15 pm 20:15 Clear 48 8.8 20 -6.5 34 34 SSE 10 17 29.91 1013 10 16.0934 0 0
8:35 pm 20:35 Clear 49 9.5 21 -6.2 33 33 SSE 9 15 29.91 1013 10 16.0934 0 0
8:55 pm 20:55 Clear 49 9.5 21 -6.3 33 33 S 9 15 29.91 1013 10 16.0934 0 0
9:15 pm 21:15 Clear 48 8.7 20 -6.6 34 34 S 10 17 29.91 1013 10 16.0934 0 0
9:35 pm 21:35 Clear 47 8.3 20 -6.6 34 34 S 12 19 29.94 1014 10 16.0934 0 0
9:55 pm 21:55 Clear 45 7.3 20 -6.7 37 37 S 10 17 29.94 1014 10 16.0934 0 0
10:15 pm 22:15 Clear 43 6 20 -6.5 41 41 S 10 17 29.97 1015 10 16.0934 0 0
10:35 pm 22:35 Clear 43 6 21 -6.1 42 42 S 10 17 29.97 1015 10 16.0934 0 0
10:55 pm 22:55 Clear 42 5.4 21 -6.1 44 44 S 9 15 30 1016 10 16.0934 0 0
11:15 pm 23:15 Clear 41 5 21 -6 45 45 S 9 15 30 1016 10 16.0934 0 0
11:35 pm 23:35 Clear 40 4.5 21 -6 47 47 S 9 15 30 1016 10 16.0934 0 0
11:55 pm 23:55 Clear 40 4.2 22 -5.6 49 49 S 9 15 30 1016 10 16.0934 0 0

Powered by AerisWeather